Cortez, CO

1:09 PM MDT on August 30, 2016 (GMT -0600)
Cortez Municipal

Weather History for KCEZ - February, 2013

Change the Weather History Date:

Wednesday, February 6, 2013

  Actual Average Record
Temperature  
Mean Temperature 36 °F 30 °F  
Max Temperature 47 °F 44 °F 62 °F (2015)
Min Temperature 24 °F 17 °F -4 °F (2008)
Degree Days  
Heating Degree Days 29 35  
Month to date heating degree days 185 211  
Since 1 July heating degree days 4040 4016  
Cooling Degree Days 0 0  
Month to date cooling degree days 0 0  
Year to date cooling degree days 0 0  
Moisture  
Dew Point 25 °F    
Average Humidity 67    
Maximum Humidity 88    
Minimum Humidity 45    
Precipitation  
Precipitation 0.00 in 0.03 in 0.17 in (1999)
Month to date precipitation 0.00 0.15  
Year to date precipitation 1.62 1.16  
Sea Level Pressure  
Sea Level Pressure 29.99 in    
Wind  
Wind Speed 3 mph (NNE)    
Max Wind Speed 15 mph    
Max Gust Speed 18 mph    
Visibility 10 miles    
Events      
T = Trace of Precipitation, MM = Missing Value Source: NWS Daily Summary

Daily Weather History Graph

Daily Weather History Graph

Search for Another Location

Airport or City:

Trip Planner

Search our weather history database for the weather conditions in past years. The results will help you decide how hot, cold, wet, or windy it might be!

Date:

Astronomy

Feb. 06, 2013 Rise Set
Actual Time 7:12 AM MST 5:44 PM MST
Civil Twilight 6:45 AM MST 6:12 PM MST
Nautical Twilight 6:14 AM MST 6:42 PM MST
Astronomical Twilight 5:44 AM MST 7:13 PM MST
Moon 3:57 AM MST (2/6) 2:08 PM MST (2/6)
Length of Visible Light 11h 26m
Length of Day
10h 32m
Waning Crescent, 16% of the Moon is Illuminated
Feb 6
Waning Crescent
Feb 10
New
Feb 17
First Quarter
Feb 25
Full
Mar 4
Last Quarter

Hourly Weather History & Observations

Time (MST) Temp. Windchill Dew Point Humidity Pressure Visibility Wind Dir Wind Speed Gust Speed Precip Events Conditions
12:53 AM 26.1 °F 21.9 °F 21.9 °F 84% 29.99 in 10.0 mi NE 3.5 mph - N/A   Clear
1:53 AM 28.0 °F - 24.1 °F 85% 29.98 in 10.0 mi Calm Calm - N/A   Clear
2:53 AM 26.1 °F 21.9 °F 23.0 °F 88% 29.97 in 10.0 mi North 3.5 mph - N/A   Clear
3:53 AM 24.1 °F 19.7 °F 21.0 °F 88% 29.96 in 10.0 mi NNE 3.5 mph - N/A   Clear
4:53 AM 25.0 °F - 21.0 °F 85% 29.96 in 10.0 mi Calm Calm - N/A   Clear
5:53 AM 25.0 °F 18.1 °F 21.0 °F 85% 29.98 in 10.0 mi NE 5.8 mph - N/A   Clear
6:53 AM 24.1 °F 17.0 °F 21.0 °F 88% 29.99 in 10.0 mi East 5.8 mph - N/A   Clear
7:53 AM 27.0 °F 23.0 °F 23.0 °F 85% 30.00 in 10.0 mi SSE 3.5 mph - N/A   Clear
8:53 AM 33.1 °F - 26.1 °F 75% 29.99 in 10.0 mi Calm Calm - N/A   Clear
9:53 AM 37.0 °F - 25.0 °F 62% 29.99 in 10.0 mi Calm Calm - N/A   Clear
10:53 AM 41.0 °F - 26.1 °F 55% 29.97 in 10.0 mi Calm Calm - N/A   Mostly Cloudy
11:53 AM 44.1 °F 40.8 °F 28.9 °F 55% 29.95 in 10.0 mi SW 5.8 mph - N/A   Mostly Cloudy
12:53 PM 44.1 °F 37.4 °F 28.0 °F 53% 29.94 in 10.0 mi WNW 13.8 mph 18.4 mph N/A   Mostly Cloudy
1:53 PM 45.0 °F 41.8 °F 28.9 °F 53% 29.92 in 10.0 mi WNW 5.8 mph - N/A   Overcast
2:53 PM 45.0 °F 43.5 °F 28.0 °F 52% 29.93 in 10.0 mi SW 3.5 mph - N/A   Mostly Cloudy
3:53 PM 46.0 °F - 26.1 °F 46% 29.94 in 10.0 mi Calm Calm - N/A   Mostly Cloudy
4:53 PM 46.0 °F 43.9 °F 28.0 °F 50% 29.95 in 10.0 mi NW 4.6 mph - N/A   Scattered Clouds
5:53 PM 39.9 °F - 26.1 °F 58% 29.99 in 10.0 mi Calm Calm - N/A   Clear
6:53 PM 33.1 °F 30.0 °F 26.1 °F 75% 30.04 in 10.0 mi SSE 3.5 mph - N/A   Partly Cloudy
7:53 PM 36.0 °F 30.3 °F 26.1 °F 67% 30.04 in 10.0 mi NW 6.9 mph - N/A   Mostly Cloudy
8:53 PM 37.0 °F 34.5 °F 26.1 °F 65% 30.03 in 10.0 mi SSW 3.5 mph - N/A   Overcast
9:53 PM 32.0 °F - 26.1 °F 79% 30.04 in 10.0 mi Calm Calm - N/A   Clear
10:53 PM 28.9 °F 23.9 °F 25.0 °F 85% 30.05 in 10.0 mi ENE 4.6 mph - N/A   Clear
11:53 PM 30.0 °F 26.5 °F 25.0 °F 82% 30.05 in 10.0 mi East 3.5 mph - N/A   Clear